When you browse on this site, cookies collect data to enhance your experience and personalize the content and advertising you see.
Visit our Privacy Policy to learn more. By continuing to use the site, you agree to this use of cookies and data.
  • In Spain
  • List of Countries
  • For 7 days
  • Water Temperature
  • Satellite Maps
  • Weather Map
  • Weather Widgets
  • user-avatar
    Login

    Hourly Weather Lucknow

    Today, 20 July, Saturday

    Time Temperature Precipitation Wind Pressure Humidity
    00:00 +36°C° 0 mm 2 mps 738 mmHg 48%
    01:00 +36°C° 0 mm 2 mps 738 mmHg 49%
    02:00 +35°C° 0 mm 1 mps 738 mmHg 50%
    03:00 +34°C° 0 mm 1 mps 738 mmHg 51%
    04:00 +34°C° 0 mm 1 mps 738 mmHg 52%
    05:00 +34°C° 0 mm 1 mps 739 mmHg 55%
    06:00 +35°C° 0 mm 1 mps 739 mmHg 51%
    07:00 +37°C° 0 mm 2 mps 739 mmHg 47%
    08:00 +38°C° 0 mm 2 mps 740 mmHg 43%
    09:00 +39°C° 0 mm 2 mps 740 mmHg 41%
    10:00 +40°C° 0 mm 2 mps 739 mmHg 38%
    11:00 +41°C° 0 mm 2 mps 739 mmHg 35%
    12:00 +41°C° 0 mm 2 mps 739 mmHg 35%
    13:00 +41°C° 0 mm 2 mps 738 mmHg 34%
    14:00 +42°C° 0 mm 2 mps 738 mmHg 34%
    15:00 +41°C° 0 mm 2 mps 737 mmHg 34%
    16:00 +41°C° 0 mm 1 mps 737 mmHg 35%
    17:00 +41°C° 0 mm 1 mps 736 mmHg 36%
    18:00 +40°C° 0 mm 1 mps 736 mmHg 38%
    19:00 +39°C° 0 mm 1 mps 737 mmHg 41%
    20:00 +37°C° 0 mm 1 mps 737 mmHg 43%
    21:00 +37°C° 0 mm 1 mps 737 mmHg 44%
    22:00 +37°C° 0 mm 1 mps 737 mmHg 45%
    23:00 +36°C° 0 mm 1 mps 737 mmHg 46%

    Tomorrow, 21 July, Sunday

    Time Temperature Precipitation Wind Pressure Humidity
    00:00 +37°C° 0 mm 2 mps 737 mmHg 47%
    01:00 +36°C° 0 mm 2 mps 737 mmHg 49%
    02:00 +36°C° 0 mm 2 mps 737 mmHg 50%
    03:00 +36°C° 0 mm 2 mps 737 mmHg 51%
    04:00 +35°C° 0 mm 2 mps 737 mmHg 53%
    05:00 +35°C° 0 mm 2 mps 737 mmHg 54%
    06:00 +36°C° 0 mm 2 mps 738 mmHg 51%
    07:00 +38°C° 0 mm 2 mps 738 mmHg 48%
    08:00 +39°C° 0 mm 2 mps 739 mmHg 45%
    09:00 +40°C° 0 mm 2 mps 739 mmHg 42%
    10:00 +41°C° 0 mm 1 mps 739 mmHg 38%
    11:00 +42°C° 0 mm 1 mps 739 mmHg 35%
    12:00 +42°C° 0 mm 1 mps 738 mmHg 34%
    13:00 +42°C° 0 mm 1 mps 737 mmHg 34%
    14:00 +40°C° 0 mm 0 mps 737 mmHg 33%
    15:00 +39°C° 0 mm 0 mps 736 mmHg 32%
    16:00 +42°C° 0 mm 1 mps 736 mmHg 32%
    17:00 +42°C° 0 mm 1 mps 735 mmHg 32%
    18:00 +41°C° 0 mm 1 mps 736 mmHg 34%
    19:00 +41°C° 0 mm 1 mps 736 mmHg 36%
    20:00 +40°C° 0 mm 1 mps 736 mmHg 39%
    21:00 +39°C° 0 mm 1 mps 736 mmHg 40%
    22:00 +39°C° 0 mm 1 mps 736 mmHg 41%
    23:00 +37°C° 0 mm 1 mps 736 mmHg 42%

    Day after tomorrow, 22 July, Monday

    Time Temperature Precipitation Wind Pressure Humidity
    00:00 +37°C° 0 mm 1 mps 736 mmHg 44%
    01:00 +38°C° 0 mm 2 mps 736 mmHg 46%
    02:00 +37°C° 0 mm 2 mps 736 mmHg 48%
    03:00 +36°C° 0 mm 1 mps 736 mmHg 49%
    04:00 +36°C° 0 mm 1 mps 736 mmHg 50%
    05:00 +35°C° 0 mm 1 mps 736 mmHg 51%
    06:00 +37°C° 0 mm 2 mps 736 mmHg 48%
    07:00 +39°C° 0 mm 2 mps 737 mmHg 46%
    08:00 +40°C° 0 mm 3 mps 737 mmHg 43%
    09:00 +40°C° 0 mm 3 mps 737 mmHg 41%
    10:00 +41°C° 0 mm 2 mps 737 mmHg 38%
    11:00 +42°C° 0 mm 2 mps 737 mmHg 36%
    12:00 +42°C° 0 mm 2 mps 736 mmHg 34%
    13:00 +43°C° 0 mm 2 mps 736 mmHg 33%
    14:00 +43°C° 0 mm 2 mps 735 mmHg 32%
    15:00 +43°C° 0 mm 2 mps 735 mmHg 33%
    16:00 +42°C° 0 mm 2 mps 735 mmHg 34%
    17:00 +42°C° 0 mm 2 mps 734 mmHg 35%
    18:00 +41°C° 0 mm 2 mps 734 mmHg 36%
    19:00 +41°C° 0 mm 1 mps 735 mmHg 38%
    20:00 +40°C° 0 mm 1 mps 735 mmHg 40%
    21:00 +39°C° 0 mm 2 mps 735 mmHg 42%
    22:00 +38°C° 0 mm 4 mps 735 mmHg 45%
    23:00 +39°C° 0 mm 5 mps 736 mmHg 47%

    23 July, Tuesday

    Time Temperature Precipitation Wind Pressure Humidity
    00:00 +37°C° 0.1 mm 5 mps 736 mmHg 53%
    01:00 +36°C° 0.1 mm 5 mps 735 mmHg 59%
    02:00 +35°C° 0.1 mm 5 mps 735 mmHg 65%
    03:00 +34°C° 0 mm 5 mps 735 mmHg 67%
    04:00 +34°C° 0 mm 5 mps 736 mmHg 69%
    05:00 +33°C° 0 mm 5 mps 736 mmHg 72%
    06:00 +34°C° 0 mm 5 mps 736 mmHg 70%
    07:00 +34°C° 0 mm 6 mps 737 mmHg 68%
    08:00 +35°C° 0 mm 6 mps 737 mmHg 66%
    09:00 +36°C° 0 mm 6 mps 737 mmHg 62%
    10:00 +38°C° 0 mm 6 mps 737 mmHg 58%
    11:00 +39°C° 0 mm 6 mps 737 mmHg 55%
    12:00 +40°C° 0 mm 5 mps 737 mmHg 53%
    13:00 +40°C° 0 mm 5 mps 736 mmHg 51%
    14:00 +41°C° 0 mm 5 mps 736 mmHg 50%
    15:00 +39°C° 0.6 mm 6 mps 735 mmHg 55%
    16:00 +38°C° 0.6 mm 6 mps 735 mmHg 61%
    17:00 +35°C° 0.6 mm 7 mps 735 mmHg 67%
    18:00 +34°C° 1.3 mm 7 mps 735 mmHg 70%
    19:00 +34°C° 1.3 mm 6 mps 736 mmHg 73%
    20:00 +33°C° 1.3 mm 5 mps 736 mmHg 76%
    21:00 +32°C° 1.2 mm 5 mps 736 mmHg 77%
    22:00 +32°C° 1.2 mm 5 mps 737 mmHg 77%
    23:00 +30°C° 1.2 mm 5 mps 737 mmHg 78%

    24 July, Wednesday

    Time Temperature Precipitation Wind Pressure Humidity
    00:00 +30°C° 2.1 mm 5 mps 737 mmHg 79%
    01:00 +30°C° 2.1 mm 4 mps 737 mmHg 81%
    02:00 +30°C° 2.1 mm 4 mps 737 mmHg 82%
    03:00 +30°C° 0.7 mm 4 mps 737 mmHg 82%
    04:00 +29°C° 0.7 mm 4 mps 737 mmHg 83%
    05:00 +29°C° 0.7 mm 3 mps 737 mmHg 83%
    06:00 +30°C° 0.1 mm 3 mps 737 mmHg 79%
    07:00 +31°C° 0.1 mm 3 mps 738 mmHg 76%
    08:00 +33°C° 0.1 mm 3 mps 738 mmHg 72%
    09:00 +34°C° 0 mm 3 mps 738 mmHg 68%
    10:00 +35°C° 0 mm 3 mps 738 mmHg 65%
    11:00 +36°C° 0 mm 3 mps 738 mmHg 61%
    12:00 +37°C° 0 mm 3 mps 737 mmHg 58%
    13:00 +37°C° 0 mm 3 mps 737 mmHg 56%
    14:00 +38°C° 0 mm 3 mps 736 mmHg 54%
    15:00 +37°C° 0 mm 3 mps 736 mmHg 54%
    16:00 +37°C° 0 mm 3 mps 735 mmHg 55%
    17:00 +37°C° 0 mm 4 mps 735 mmHg 55%
    18:00 +36°C° 0.3 mm 3 mps 735 mmHg 57%
    19:00 +36°C° 0.3 mm 3 mps 735 mmHg 59%
    20:00 +35°C° 0.3 mm 2 mps 735 mmHg 61%
    21:00 +34°C° 0.9 mm 2 mps 736 mmHg 64%
    22:00 +34°C° 0.9 mm 2 mps 736 mmHg 68%
    23:00 +33°C° 0.9 mm 3 mps 736 mmHg 72%

    25 July, Thursday

    Time Temperature Precipitation Wind Pressure Humidity
    00:00 +32°C° 0.4 mm 2 mps 736 mmHg 73%
    01:00 +32°C° 0.4 mm 2 mps 736 mmHg 75%
    02:00 +32°C° 0.4 mm 2 mps 736 mmHg 76%
    03:00 +31°C° 0 mm 2 mps 736 mmHg 78%
    04:00 +31°C° 0 mm 3 mps 736 mmHg 79%
    05:00 +31°C° 0 mm 3 mps 736 mmHg 80%
    06:00 +31°C° 1.6 mm 3 mps 736 mmHg 77%
    07:00 +33°C° 1.6 mm 4 mps 737 mmHg 75%
    08:00 +34°C° 1.6 mm 5 mps 737 mmHg 72%
    09:00 +34°C° 3.2 mm 5 mps 737 mmHg 72%
    10:00 +34°C° 3.2 mm 5 mps 738 mmHg 72%
    11:00 +34°C° 3.2 mm 5 mps 738 mmHg 72%
    12:00 +33°C° 3.1 mm 4 mps 738 mmHg 74%
    13:00 +33°C° 3.1 mm 3 mps 737 mmHg 77%
    14:00 +31°C° 3.1 mm 2 mps 737 mmHg 80%
    15:00 +31°C° 1.2 mm 2 mps 737 mmHg 82%
    16:00 +30°C° 1.2 mm 2 mps 736 mmHg 84%
    17:00 +30°C° 1.2 mm 2 mps 736 mmHg 86%
    18:00 +30°C° 0 mm 2 mps 736 mmHg 85%
    19:00 +30°C° 0 mm 2 mps 736 mmHg 85%
    20:00 +30°C° 0 mm 1 mps 736 mmHg 84%
    21:00 +30°C° 0.1 mm 2 mps 737 mmHg 84%
    22:00 +30°C° 0.1 mm 2 mps 737 mmHg 84%
    23:00 +30°C° 0.1 mm 2 mps 737 mmHg 83%
    Show more